{"data":{"norad_id":61700,"epoch":"2026-09-21T09:52:31.528128Z","epoch_age_seconds":109760,"freshness":"FRESH","line1":"1 61700U 24195P   26264.41147602  .00000313  00000+0  20393-4 0  9997","line2":"2 61700  53.1614 325.0986 0001164  82.2199 277.8935 15.34386365107162","mean_motion":15.34386365,"eccentricity":0.0001164,"inclination_deg":53.1614,"raan_deg":325.0986,"arg_perigee_deg":82.2199,"mean_anomaly_deg":277.8935,"bstar":2.0393e-5,"rev_number":10716,"period_min":93.848592039594,"perigee_km":461.94748807942,"apogee_km":463.54004512189,"semimajor_km":6840.8807666007,"source":"CELESTRAK","updated_at":"2026-09-22T09:00:49.408346Z"}}